Date String (YYYY-MM-DD hh:mm:ss) UTC,Instrument flags,Ambient pressure (hPa),Sample flow (lpm),Bypass flow (lpm),Sample temperature (°C),Ambient temperature (°C),ASC tube jacket temperature (°C),LED temperature (°C),Box temperature (°C),Sample RH (%),Span deviation,Mass concentration (μg/m³),Mass concentration (μg/m³),Mass concentration (μg/m³)
DateTimeUTC,F1_M11,P_M11,Q1_M11,Q2_M11,T1_M11,T2_M11,T3_M11,T4_M11,T5_M11,U1_M11,ZSPAN_M11,X2_M11,X0_M11,X1_M11
2022-08-07 09:00:00,,0826.7,5.00,0.00,29.9,28.8,00.0,38.7,31.8,29.4,0000.0,0004.33,0007.66,0003.82
2022-08-07 09:01:00,,0826.7,5.00,0.00,29.9,28.9,00.0,38.7,31.9,30.0,0000.0,0004.33,0007.87,0003.82
2022-08-07 09:02:00,,0826.6,5.00,0.00,29.9,28.9,00.0,38.7,31.9,30.2,0000.0,0004.35,0007.95,0003.82
2022-08-07 09:03:00,,0826.7,5.00,0.00,30.0,28.9,00.0,38.7,31.9,29.8,0000.0,0004.34,0008.00,0003.81
2022-08-07 09:04:00,,0826.7,4.99,0.00,30.0,28.6,00.0,38.7,31.8,30.1,0000.0,0004.32,0008.03,0003.79
2022-08-07 09:05:00,,0826.7,5.01,0.00,29.9,27.9,00.0,38.6,31.7,29.8,0000.0,0004.31,0007.96,0003.79
2022-08-07 09:06:00,,0826.7,4.99,0.00,29.9,27.7,00.0,38.6,31.6,30.0,0000.0,0004.27,0007.90,0003.78
2022-08-07 09:07:00,,0826.7,5.01,0.00,29.8,27.6,00.0,38.6,31.4,30.1,0000.0,0004.23,0007.94,0003.78
2022-08-07 09:08:00,,0826.8,4.99,0.00,29.7,27.7,00.0,38.6,31.4,30.5,0000.0,0004.20,0007.87,0003.77
2022-08-07 09:09:00,,0826.9,5.01,0.00,29.7,27.8,00.0,38.6,31.5,30.9,0000.0,0004.21,0007.87,0003.78
2022-08-07 09:10:00,,0826.9,5.00,0.00,29.7,27.9,00.0,38.6,31.5,30.7,0000.0,0004.25,0007.96,0003.80
2022-08-07 09:11:00,,0826.9,5.00,0.00,29.7,28.1,00.0,38.6,31.6,30.3,0000.0,0004.28,0007.89,0003.81
2022-08-07 09:12:00,,0826.9,4.99,0.00,29.7,28.2,00.0,38.6,31.6,30.9,0000.0,0004.27,0007.59,0003.81
2022-08-07 09:13:00,,0826.9,5.00,0.00,29.7,28.3,00.0,38.6,31.6,31.6,0000.0,0004.28,0007.78,0003.82
2022-08-07 09:14:00,,0827.1,5.00,0.00,29.7,28.4,00.0,38.6,31.6,31.7,0000.0,0004.28,0008.00,0003.85
2022-08-07 09:15:00,,0827.2,5.00,0.00,29.8,28.5,00.0,38.6,31.7,33.8,0000.0,0004.32,0008.06,0003.91
2022-08-07 09:16:00,,0827.1,5.00,0.00,29.8,28.6,00.0,38.6,31.7,35.2,0000.0,0004.45,0008.59,0004.00
2022-08-07 09:17:00,,0827.2,5.00,0.00,30.0,28.6,00.0,38.6,31.9,34.0,0000.0,0004.56,0008.69,0004.08
2022-08-07 09:18:00,,0827.2,5.00,0.00,30.2,28.7,00.0,38.6,31.9,33.7,0000.0,0004.67,0008.78,0004.14
2022-08-07 09:19:00,,0827.2,5.00,0.00,30.3,28.8,00.0,38.6,31.9,34.1,0000.0,0004.83,0009.87,0004.22
2022-08-07 09:20:00,,0827.2,5.01,0.00,30.3,28.8,00.0,38.7,31.9,33.5,0000.0,0004.94,0010.30,0004.28
2022-08-07 09:21:00,,0827.2,5.00,0.00,30.4,28.9,00.0,38.7,32.0,32.9,0000.0,0005.00,0010.35,0004.33
2022-08-07 09:22:00,,0827.3,5.00,0.00,30.4,28.9,00.0,38.8,32.0,32.8,0000.0,0005.06,0010.38,0004.38
2022-08-07 09:23:00,,0827.2,5.00,0.00,30.4,29.0,00.0,38.8,32.0,32.4,0000.0,0005.12,0010.41,0004.43
2022-08-07 09:24:00,,0827.3,5.00,0.00,30.4,29.0,00.0,38.9,32.0,32.9,0000.0,0005.22,0010.39,0004.48
2022-08-07 09:25:00,,0827.3,4.99,0.00,30.4,28.9,00.0,38.9,32.0,33.1,0000.0,0005.30,0010.32,0004.53
2022-08-07 09:26:00,,0827.3,5.00,0.00,30.4,28.2,00.0,38.9,31.9,33.8,0000.0,0005.37,0010.55,0004.56
2022-08-07 09:27:00,,0827.3,5.01,0.00,30.4,27.8,00.0,38.8,31.8,34.1,0000.0,0005.38,0010.31,0004.57
2022-08-07 09:28:00,,0827.3,5.00,0.00,30.2,27.7,00.0,38.8,31.7,34.3,0000.0,0005.44,0010.50,0004.60
2022-08-07 09:29:00,,0827.2,5.00,0.00,30.2,27.7,00.0,38.8,31.6,35.0,0000.0,0005.54,0010.80,0004.65
2022-08-07 09:30:00,,0827.3,5.00,0.00,30.3,27.8,00.0,38.8,31.7,34.5,0000.0,0005.53,0010.27,0004.66
2022-08-07 09:31:00,,0827.3,5.00,0.00,30.3,27.9,00.0,38.8,31.7,34.4,0000.0,0005.54,0009.82,0004.68
2022-08-07 09:32:00,,0827.3,5.00,0.00,30.4,28.1,00.0,38.8,31.8,34.6,0000.0,0005.63,0010.27,0004.72
2022-08-07 09:33:00,,0827.4,4.99,0.00,30.4,28.2,00.0,38.8,31.7,34.5,0000.0,0005.70,0010.47,0004.76
2022-08-07 09:34:00,,0827.4,5.01,0.00,30.4,28.3,00.0,38.9,31.8,34.6,0000.0,0005.80,0010.88,0004.79
2022-08-07 09:35:00,,0827.4,5.00,0.00,30.4,28.4,00.0,38.9,31.8,34.3,0000.0,0005.85,0011.23,0004.82
2022-08-07 09:36:00,,0827.4,5.00,0.00,30.4,28.5,00.0,38.9,31.9,34.3,0000.0,0005.91,0011.90,0004.85
2022-08-07 09:37:00,,0827.4,5.00,0.00,30.4,28.6,00.0,38.9,31.9,34.5,0000.0,0005.96,0012.07,0004.88
2022-08-07 09:38:00,,0827.3,5.00,0.00,30.4,28.7,00.0,38.9,31.9,34.5,0000.0,0006.03,0012.19,0004.90
2022-08-07 09:39:00,,0827.3,4.99,0.00,30.4,28.7,00.0,38.9,31.9,34.2,0000.0,0006.02,0011.97,0004.90
2022-08-07 09:40:00,,0827.4,5.00,0.00,30.4,28.8,00.0,39.0,32.0,34.4,0000.0,0005.97,0012.22,0004.90
2022-08-07 09:41:00,,0827.3,5.00,0.00,30.4,28.8,00.0,39.0,32.0,34.4,0000.0,0005.97,0012.77,0004.90
2022-08-07 09:42:00,,0827.3,5.00,0.00,30.4,28.9,00.0,39.0,32.0,34.4,0000.0,0006.01,0012.97,0004.93
2022-08-07 09:43:00,,0827.4,5.00,0.00,30.4,28.9,00.0,39.0,32.0,34.3,0000.0,0006.01,0012.74,0004.95
2022-08-07 09:44:00,,0827.4,5.01,0.00,30.4,29.0,00.0,39.0,32.0,34.2,0000.0,0006.02,0012.76,0004.97
2022-08-07 09:45:00,,0827.4,4.99,0.00,30.4,29.0,00.0,39.0,32.1,34.1,0000.0,0006.04,0013.29,0004.99
2022-08-07 09:46:00,,0827.4,4.99,0.00,30.4,29.0,00.0,39.0,32.1,34.2,0000.0,0006.07,0013.13,0005.00
2022-08-07 09:47:00,,0827.5,5.00,0.00,30.4,28.8,00.0,39.0,32.0,34.2,0000.0,0006.07,0012.58,0005.01
2022-08-07 09:48:00,,0827.5,5.00,0.00,30.4,28.1,00.0,39.0,31.9,34.3,0000.0,0006.07,0012.29,0005.02
2022-08-07 09:49:00,,0827.5,5.01,0.00,30.3,27.7,00.0,39.0,31.8,34.3,0000.0,0006.03,0012.12,0005.03
2022-08-07 09:50:00,,0827.4,5.00,0.00,30.2,27.7,00.0,38.9,31.7,34.5,0000.0,0006.08,0012.33,0005.03
2022-08-07 09:51:00,,0827.4,5.00,0.00,30.1,27.7,00.0,38.9,31.7,34.7,0000.0,0006.17,0012.25,0005.04
2022-08-07 09:52:00,,0827.4,5.01,0.00,30.1,27.8,00.0,38.9,31.7,34.6,0000.0,0006.22,0012.92,0005.05
2022-08-07 09:53:00,,0827.4,4.99,0.00,30.1,28.0,00.0,38.9,31.7,34.7,0000.0,0006.20,0013.01,0005.05
2022-08-07 09:54:00,,0827.4,5.00,0.00,30.1,28.1,00.0,38.9,31.7,34.9,0000.0,0006.22,0013.10,0005.05
2022-08-07 09:55:00,,0827.4,4.99,0.00,30.1,28.2,00.0,38.8,31.7,34.7,0000.0,0006.19,0013.19,0005.04
2022-08-07 09:56:00,,0827.4,5.00,0.00,30.2,28.3,00.0,38.8,31.8,34.8,0000.0,0006.16,0012.94,0005.03
2022-08-07 09:57:00,,0827.4,5.00,0.00,30.2,28.4,00.0,38.8,31.9,34.7,0000.0,0006.15,0013.18,0005.02
2022-08-07 09:58:00,,0827.4,4.99,0.00,30.2,28.5,00.0,38.9,31.8,34.3,0000.0,0006.15,0013.53,0005.02
2022-08-07 09:59:00,,0827.4,5.00,0.00,30.2,28.6,00.0,38.9,31.9,34.6,0000.0,0006.16,0013.77,0005.01
